| time (UTC) | temp F | wind direction | speed knots | gust knots | rain 1hr in | rain 24hr in | rain mn in | humidity % | barometer mb |
| 20260506205536 | 63 | 312 | 1.7 | 7.0 | 0.00 | 0.00 | 0.00 | 75 | 1006.5 |
| 20260506205048 | 63 | 313 | 1.7 | 7.8 | 0.00 | 0.00 | 0.00 | 72 | 1006.1 |
| 20260506204528 | 62 | 312 | 3.5 | 9.6 | 0.00 | 0.00 | 0.00 | 71 | 1005.8 |
| 20260506204040 | 61 | 310 | 0.9 | 1.7 | 0.00 | 0.00 | 0.00 | 75 | 1005.6 |
| 20260506203520 | 61 | 319 | 0.9 | 0.9 | 0.00 | 0.00 | 0.00 | 75 | 1005.4 |
| 20260506203032 | 61 | 321 | 0.9 | 1.7 | 0.00 | 0.00 | 0.00 | 78 | 1005.3 |
| 20260506202544 | 61 | 318 | 0.0 | 0.9 | 0.00 | 0.00 | 0.00 | 80 | 1005.3 |
| 20260506202024 | 61 | 0.0 | 0.0 | 0.00 | 0.00 | 0.00 | 78 | 1005.2 | |
| 20260506201536 | 62 | 310 | 0.9 | 0.9 | 0.00 | 0.00 | 0.00 | 76 | 1005.1 |
| 20260506201049 | 62 | 0.0 | 0.0 | 0.00 | 0.00 | 0.00 | 76 | 1005.0 | |
| 20260506200528 | 62 | 0.0 | 0.0 | 0.00 | 0.00 | 0.00 | 74 | 1005.0 | |
| 20260506200040 | 62 | 0.0 | 0.0 | 0.00 | 0.00 | 0.00 | 72 | 1005.0 | |
| 20260506195520 | 62 | 0.0 | 0.0 | 0.00 | 0.00 | 0.00 | 71 | 1005.2 | |
| 20260506195032 | 62 | 0.0 | 0.0 | 0.00 | 0.00 | 0.00 | 72 | 1005.3 | |
| 20260506194544 | 62 | 0.0 | 0.0 | 0.00 | 0.00 | 0.00 | 70 | 1005.4 | |
| 20260506194024 | 62 | 0.0 | 0.0 | 0.00 | 0.00 | 0.00 | 71 | 1005.3 | |
| 20260506193536 | 62 | 0.0 | 0.0 | 0.00 | 0.00 | 0.00 | 71 | 1005.4 | |
| 20260506193048 | 62 | 0.0 | 0.0 | 0.00 | 0.00 | 0.00 | 69 | 1005.2 | |
| 20260506192528 | 62 | 0.0 | 0.0 | 0.00 | 0.00 | 0.00 | 69 | 1005.3 | |
| 20260506192040 | 62 | 0.0 | 0.0 | 0.00 | 0.00 | 0.00 | 70 | 1005.3 | |
| 20260506191520 | 63 | 319 | 0.0 | 0.9 | 0.00 | 0.00 | 0.00 | 69 | 1005.5 |
| 20260506191032 | 63 | 322 | 0.0 | 0.9 | 0.00 | 0.00 | 0.00 | 67 | 1005.4 |
| 20260506190544 | 64 | 0.0 | 0.0 | 0.00 | 0.00 | 0.00 | 68 | 1005.3 | |
| 20260506190024 | 64 | 0.0 | 0.0 | 0.00 | 0.00 | 0.00 | 67 | 1005.1 | |
| 20260506185536 | 65 | 0.0 | 0.0 | 0.00 | 0.00 | 0.00 | 66 | 1005.2 | |
| 20260506185048 | 65 | 0.0 | 0.0 | 0.00 | 0.00 | 0.00 | 66 | 1005.1 | |
| 20260506184528 | 66 | 0.0 | 0.0 | 0.00 | 0.00 | 0.00 | 66 | 1005.1 | |
| 20260506184026 | 66 | 0.0 | 0.0 | 0.00 | 0.00 | 0.00 | 64 | 1005.0 | |
| 20260506183536 | 67 | 0.0 | 0.0 | 0.00 | 0.00 | 0.00 | 63 | 1004.8 | |
| 20260506183048 | 67 | 0.0 | 0.0 | 0.00 | 0.00 | 0.00 | 62 | 1004.8 | |
| 20260506182528 | 67 | 0.0 | 0.0 | 0.00 | 0.00 | 0.00 | 62 | 1004.7 | |
| 20260506182040 | 67 | 0.0 | 0.0 | 0.00 | 0.00 | 0.00 | 61 | 1004.8 | |
| 20260506181520 | 67 | 0.0 | 0.0 | 0.00 | 0.00 | 0.00 | 61 | 1004.8 | |
| 20260506181032 | 68 | 0.0 | 0.0 | 0.00 | 0.00 | 0.00 | 60 | 1004.7 | |
| 20260506180545 | 68 | 0.0 | 0.0 | 0.00 | 0.00 | 0.00 | 61 | 1004.6 | |
| 20260506180024 | 69 | 0.0 | 0.0 | 0.00 | 0.00 | 0.00 | 59 | 1004.7 | |
| 20260506175536 | 69 | 0.0 | 0.0 | 0.00 | 0.00 | 0.00 | 59 | 1004.5 | |
| 20260506175048 | 70 | 0.0 | 0.0 | 0.00 | 0.00 | 0.00 | 57 | 1004.5 | |
| 20260506174528 | 70 | 0.0 | 0.0 | 0.00 | 0.00 | 0.00 | 57 | 1004.5 | |
| 20260506174040 | 71 | 322 | 0.0 | 0.9 | 0.00 | 0.00 | 0.00 | 54 | 1004.6 |
| 20260506173520 | 72 | 0.0 | 0.0 | 0.00 | 0.00 | 0.00 | 53 | 1004.7 | |
| 20260506173048 | 72 | 324 | 0.0 | 0.9 | 0.00 | 0.00 | 0.00 | 53 | 1004.5 |
| 20260506172528 | 72 | 308 | 0.0 | 0.9 | 0.00 | 0.00 | 0.00 | 52 | 1004.6 |
| 20260506172024 | 72 | 317 | 0.9 | 2.6 | 0.00 | 0.00 | 0.00 | 51 | 1004.7 |
| 20260506171536 | 72 | 318 | 0.9 | 1.7 | 0.00 | 0.00 | 0.00 | 51 | 1004.7 |
| 20260506171048 | 72 | 325 | 0.9 | 1.7 | 0.00 | 0.00 | 0.00 | 51 | 1004.8 |
| 20260506170528 | 73 | 317 | 0.9 | 2.6 | 0.00 | 0.00 | 0.00 | 50 | 1004.8 |
| 20260506170040 | 73 | 328 | 0.9 | 2.6 | 0.00 | 0.00 | 0.00 | 50 | 1004.8 |
| 20260506165520 | 73 | 324 | 0.9 | 2.6 | 0.00 | 0.00 | 0.00 | 51 | 1004.7 |
| 20260506165048 | 73 | 316 | 0.9 | 2.6 | 0.00 | 0.00 | 0.00 | 50 | 1004.7 |
| 20260506164528 | 73 | 323 | 0.9 | 1.7 | 0.00 | 0.00 | 0.00 | 50 | 1004.6 |
| 20260506164040 | 73 | 320 | 0.9 | 1.7 | 0.00 | 0.00 | 0.00 | 50 | 1004.7 |
| 20260506163520 | 72 | 320 | 0.9 | 2.6 | 0.00 | 0.00 | 0.00 | 50 | 1004.8 |
| 20260506163032 | 72 | 325 | 0.9 | 1.7 | 0.00 | 0.00 | 0.00 | 51 | 1004.8 |
| 20260506162544 | 72 | 318 | 0.9 | 4.3 | 0.00 | 0.00 | 0.00 | 50 | 1004.8 |
| 20260506162024 | 72 | 322 | 0.9 | 1.7 | 0.00 | 0.00 | 0.00 | 50 | 1004.8 |
| 20260506161536 | 72 | 323 | 1.7 | 2.6 | 0.00 | 0.00 | 0.00 | 50 | 1004.8 |
| 20260506161048 | 73 | 318 | 1.7 | 2.6 | 0.00 | 0.00 | 0.00 | 49 | 1004.8 |
| 20260506160528 | 73 | 311 | 1.7 | 5.2 | 0.00 | 0.00 | 0.00 | 49 | 1004.8 |
| 20260506160040 | 73 | 311 | 1.7 | 4.3 | 0.00 | 0.00 | 0.00 | 50 | 1004.8 |
| 20260506155520 | 73 | 319 | 0.9 | 1.7 | 0.00 | 0.00 | 0.00 | 49 | 1004.9 |
| 20260506155032 | 73 | 322 | 0.9 | 4.3 | 0.00 | 0.00 | 0.00 | 48 | 1004.9 |
| 20260506154544 | 73 | 310 | 1.7 | 4.3 | 0.00 | 0.00 | 0.00 | 49 | 1005.0 |
| 20260506154024 | 74 | 258 | 1.7 | 2.6 | 0.00 | 0.00 | 0.00 | 49 | 1005.0 |
| 20260506153536 | 74 | 311 | 1.7 | 5.2 | 0.00 | 0.00 | 0.00 | 48 | 1005.0 |
| 20260506153049 | 75 | 325 | 1.7 | 6.1 | 0.00 | 0.00 | 0.00 | 48 | 1004.9 |
| 20260506152528 | 75 | 315 | 1.7 | 4.3 | 0.00 | 0.00 | 0.00 | 48 | 1005.0 |
| 20260506152041 | 74 | 314 | 1.7 | 7.0 | 0.00 | 0.00 | 0.00 | 48 | 1004.9 |
| 20260506151520 | 74 | 321 | 1.7 | 4.3 | 0.00 | 0.00 | 0.00 | 48 | 1005.0 |
| 20260506151032 | 75 | 296 | 1.7 | 5.2 | 0.00 | 0.00 | 0.00 | 47 | 1005.1 |
| 20260506150544 | 74 | 328 | 1.7 | 2.6 | 0.00 | 0.00 | 0.00 | 48 | 1005.0 |
| 20260506150025 | 74 | 271 | 1.7 | 5.2 | 0.00 | 0.00 | 0.00 | 47 | 1005.1 |
| 20260506145536 | 74 | 318 | 1.7 | 6.1 | 0.00 | 0.00 | 0.00 | 47 | 1005.1 |
| 20260506145048 | 75 | 299 | 2.6 | 7.0 | 0.00 | 0.00 | 0.00 | 46 | 1005.1 |
| 20260506144528 | 76 | 308 | 2.6 | 5.2 | 0.00 | 0.00 | 0.00 | 45 | 1005.0 |
| 20260506144040 | 76 | 328 | 0.9 | 2.6 | 0.00 | 0.00 | 0.00 | 45 | 1005.0 |
| 20260506143520 | 76 | 293 | 1.7 | 5.2 | 0.00 | 0.00 | 0.00 | 45 | 1005.0 |
| 20260506143032 | 76 | 268 | 1.7 | 4.3 | 0.00 | 0.00 | 0.00 | 45 | 1005.0 |
| 20260506142544 | 77 | 336 | 1.7 | 4.3 | 0.00 | 0.00 | 0.00 | 45 | 1005.1 |
| 20260506142044 | 77 | 306 | 1.7 | 4.3 | 0.00 | 0.00 | 0.00 | 44 | 1005.1 |
| 20260506141520 | 77 | 300 | 1.7 | 5.2 | 0.00 | 0.00 | 0.00 | 45 | 1005.1 |
| 20260506141033 | 77 | 275 | 2.6 | 5.2 | 0.00 | 0.00 | 0.00 | 45 | 1005.1 |
| 20260506140531 | 76 | 307 | 1.7 | 8.7 | 0.00 | 0.00 | 0.00 | 47 | 1005.1 |
| 20260506140026 | 76 | 287 | 2.6 | 6.1 | 0.00 | 0.00 | 0.00 | 47 | 1005.1 |
| 20260506135536 | 77 | 305 | 1.7 | 5.2 | 0.00 | 0.00 | 0.00 | 47 | 1005.1 |
| 20260506135032 | 76 | 321 | 1.7 | 5.2 | 0.00 | 0.00 | 0.00 | 48 | 1005.1 |
| 20260506134544 | 75 | 304 | 2.6 | 6.1 | 0.00 | 0.00 | 0.00 | 49 | 1005.1 |
| 20260506134024 | 75 | 322 | 1.7 | 5.2 | 0.00 | 0.00 | 0.00 | 50 | 1005.1 |
| 20260506133536 | 75 | 269 | 1.7 | 4.3 | 0.00 | 0.00 | 0.00 | 49 | 1005.1 |
| 20260506133048 | 75 | 272 | 1.7 | 5.2 | 0.00 | 0.00 | 0.00 | 50 | 1005.1 |
| 20260506132528 | 75 | 312 | 1.7 | 2.6 | 0.00 | 0.00 | 0.00 | 50 | 1005.1 |
| 20260506132041 | 76 | 331 | 2.6 | 7.0 | 0.00 | 0.00 | 0.00 | 49 | 1005.0 |
| 20260506131520 | 76 | 310 | 3.5 | 6.1 | 0.00 | 0.00 | 0.00 | 49 | 1005.0 |
| 20260506131033 | 75 | 303 | 1.7 | 4.3 | 0.00 | 0.00 | 0.00 | 50 | 1005.0 |
| 20260506130544 | 75 | 286 | 2.6 | 7.8 | 0.00 | 0.00 | 0.00 | 50 | 1005.1 |
| 20260506130025 | 77 | 299 | 2.6 | 6.1 | 0.00 | 0.00 | 0.00 | 48 | 1005.1 |
| 20260506125536 | 76 | 185 | 2.6 | 6.1 | 0.00 | 0.00 | 0.00 | 49 | 1005.1 |
| 20260506125048 | 77 | 292 | 2.6 | 5.2 | 0.00 | 0.00 | 0.00 | 49 | 1005.2 |
| 20260506124528 | 78 | 290 | 2.6 | 5.2 | 0.00 | 0.00 | 0.00 | 48 | 1005.1 |
| 20260506124040 | 77 | 283 | 1.7 | 5.2 | 0.00 | 0.00 | 0.00 | 48 | 1005.1 |
| 20260506123520 | 75 | 289 | 0.9 | 2.6 | 0.00 | 0.00 | 0.00 | 51 | 1005.1 |
| 20260506123048 | 75 | 286 | 1.7 | 7.0 | 0.00 | 0.00 | 0.00 | 52 | 1005.2 |
| 20260506122528 | 75 | 354 | 1.7 | 5.2 | 0.00 | 0.00 | 0.00 | 52 | 1005.2 |
| 20260506122041 | 76 | 248 | 2.6 | 7.8 | 0.00 | 0.00 | 0.00 | 51 | 1005.2 |
| 20260506121537 | 76 | 281 | 2.6 | 6.1 | 0.00 | 0.00 | 0.00 | 50 | 1005.3 |
| 20260506121033 | 74 | 172 | 3.5 | 11.3 | 0.00 | 0.00 | 0.00 | 52 | 1005.3 |
| 20260506120544 | 74 | 183 | 3.5 | 7.8 | 0.00 | 0.00 | 0.00 | 53 | 1005.3 |
| 20260506120025 | 74 | 302 | 1.7 | 2.6 | 0.00 | 0.00 | 0.00 | 53 | 1005.3 |
| 20260506115524 | 76 | 291 | 1.7 | 5.2 | 0.00 | 0.00 | 0.00 | 52 | 1005.2 |
| 20260506115032 | 74 | 208 | 1.7 | 5.2 | 0.00 | 0.00 | 0.00 | 53 | 1005.2 |
| 20260506114528 | 72 | 355 | 2.6 | 7.8 | 0.00 | 0.00 | 0.00 | 56 | 1005.3 |
| 20260506114040 | 73 | 201 | 1.7 | 4.3 | 0.00 | 0.00 | 0.00 | 56 | 1005.3 |
| 20260506113552 | 73 | 331 | 2.6 | 6.1 | 0.00 | 0.00 | 0.00 | 56 | 1005.4 |
| 20260506113032 | 72 | 294 | 2.6 | 5.2 | 0.00 | 0.00 | 0.00 | 57 | 1005.4 |
| 20260506112544 | 73 | 290 | 1.7 | 5.2 | 0.00 | 0.00 | 0.00 | 56 | 1005.3 |
| 20260506112040 | 73 | 301 | 1.7 | 5.2 | 0.00 | 0.00 | 0.00 | 57 | 1005.3 |
| 20260506111520 | 73 | 302 | 2.6 | 6.1 | 0.00 | 0.00 | 0.00 | 58 | 1005.3 |
| 20260506111032 | 73 | 313 | 2.6 | 5.2 | 0.00 | 0.00 | 0.00 | 57 | 1005.3 |
| 20260506110544 | 73 | 309 | 2.6 | 6.1 | 0.00 | 0.00 | 0.00 | 58 | 1005.3 |
| 20260506110024 | 73 | 299 | 1.7 | 4.3 | 0.00 | 0.00 | 0.00 | 57 | 1005.3 |
| 20260506105520 | 73 | 252 | 2.6 | 7.0 | 0.00 | 0.00 | 0.00 | 57 | 1005.4 |
| 20260506105032 | 72 | 268 | 1.7 | 4.3 | 0.00 | 0.00 | 0.00 | 58 | 1005.4 |
| 20260506104544 | 71 | 304 | 2.6 | 5.2 | 0.00 | 0.00 | 0.00 | 58 | 1005.4 |
| 20260506104040 | 72 | 290 | 1.7 | 4.3 | 0.00 | 0.00 | 0.00 | 58 | 1005.5 |
| 20260506103520 | 72 | 306 | 1.7 | 5.2 | 0.00 | 0.00 | 0.00 | 57 | 1005.3 |
| 20260506103032 | 73 | 276 | 1.7 | 4.3 | 0.00 | 0.00 | 0.00 | 56 | 1005.2 |
| 20260506102544 | 75 | 312 | 1.7 | 4.3 | 0.00 | 0.00 | 0.00 | 55 | 1005.2 |
| 20260506102024 | 74 | 247 | 1.7 | 4.3 | 0.00 | 0.00 | 0.00 | 55 | 1005.1 |
| 20260506101536 | 73 | 304 | 1.7 | 4.3 | 0.00 | 0.00 | 0.00 | 56 | 1005.1 |
| 20260506101032 | 73 | 310 | 1.7 | 6.1 | 0.00 | 0.00 | 0.00 | 55 | 1005.2 |
| 20260506100528 | 74 | 269 | 1.7 | 5.2 | 0.00 | 0.00 | 0.00 | 55 | 1005.2 |
| 20260506100040 | 74 | 310 | 1.7 | 6.1 | 0.00 | 0.00 | 0.00 | 54 | 1005.1 |
| 20260506095520 | 72 | 310 | 1.7 | 7.0 | 0.00 | 0.00 | 0.00 | 56 | 1005.1 |
| 20260506095048 | 74 | 311 | 2.6 | 7.0 | 0.00 | 0.00 | 0.00 | 54 | 1005.1 |
| 20260506094549 | 74 | 276 | 1.7 | 6.1 | 0.00 | 0.00 | 0.00 | 53 | 1005.2 |
| 20260506094040 | 74 | 308 | 1.7 | 5.2 | 0.00 | 0.00 | 0.00 | 54 | 1005.2 |
| 20260506093520 | 74 | 161 | 1.7 | 5.2 | 0.00 | 0.00 | 0.00 | 54 | 1005.1 |
| 20260506093048 | 73 | 324 | 2.6 | 5.2 | 0.00 | 0.00 | 0.00 | 55 | 1004.9 |
| 20260506092528 | 71 | 317 | 1.7 | 4.3 | 0.00 | 0.00 | 0.00 | 57 | 1005.0 |
| 20260506092040 | 72 | 292 | 1.7 | 4.3 | 0.00 | 0.00 | 0.00 | 57 | 1005.0 |
| 20260506091520 | 71 | 295 | 2.6 | 6.1 | 0.00 | 0.00 | 0.00 | 56 | 1004.9 |
| 20260506091032 | 72 | 294 | 2.6 | 5.2 | 0.00 | 0.00 | 0.00 | 57 | 1005.0 |
| 20260506090544 | 72 | 282 | 1.7 | 5.2 | 0.00 | 0.00 | 0.00 | 57 | 1005.0 |
| 20260506090024 | 72 | 319 | 1.7 | 7.0 | 0.00 | 0.00 | 0.00 | 57 | 1005.0 |
| 20260506085536 | 71 | 262 | 2.6 | 6.1 | 0.00 | 0.00 | 0.00 | 58 | 1005.0 |
| 20260506085048 | 71 | 264 | 1.7 | 6.1 | 0.00 | 0.00 | 0.00 | 59 | 1004.9 |
| 20260506084529 | 71 | 296 | 1.7 | 6.1 | 0.00 | 0.00 | 0.00 | 59 | 1005.0 |
| 20260506084040 | 71 | 320 | 2.6 | 6.1 | 0.00 | 0.00 | 0.00 | 58 | 1004.9 |
| 20260506083520 | 71 | 310 | 1.7 | 5.2 | 0.00 | 0.00 | 0.00 | 60 | 1005.0 |
| 20260506083032 | 70 | 322 | 1.7 | 5.2 | 0.00 | 0.00 | 0.00 | 60 | 1005.0 |
| 20260506082602 | 70 | 293 | 1.7 | 5.2 | 0.00 | 0.00 | 0.00 | 60 | 1004.9 |
| 20260506082041 | 70 | 227 | 1.7 | 5.2 | 0.00 | 0.00 | 0.00 | 60 | 1005.0 |
| 20260506081520 | 70 | 300 | 1.7 | 5.2 | 0.00 | 0.00 | 0.00 | 61 | 1005.0 |
| 20260506081104 | 68 | 244 | 2.6 | 7.8 | 0.00 | 0.00 | 0.00 | 62 | 1005.0 |
| 20260506080544 | 67 | 305 | 1.7 | 2.6 | 0.00 | 0.00 | 0.00 | 65 | 1005.1 |
| 20260506073049 | 66 | 234 | 2.6 | 6.1 | 0.00 | 0.00 | 0.00 | 67 | 1004.9 |
| 20260506072529 | 65 | 198 | 2.6 | 7.8 | 0.00 | 0.00 | 0.00 | 67 | 1004.9 |
| 20260506072041 | 65 | 174 | 3.5 | 9.6 | 0.00 | 0.00 | 0.00 | 67 | 1004.9 |
| 20260506071537 | 66 | 193 | 3.5 | 9.6 | 0.00 | 0.00 | 0.00 | 66 | 1004.9 |
| 20260506071048 | 65 | 177 | 2.6 | 6.1 | 0.00 | 0.00 | 0.00 | 66 | 1004.9 |
| 20260506070544 | 66 | 230 | 2.6 | 7.0 | 0.00 | 0.00 | 0.00 | 66 | 1005.0 |
| 20260506062024 | 63 | 199 | 0.9 | 4.3 | 0.00 | 0.00 | 0.00 | 69 | 1004.4 |
| 20260506061520 | 63 | 20 | 1.7 | 5.2 | 0.00 | 0.00 | 0.00 | 68 | 1004.5 |
| 20260506061032 | 64 | 192 | 3.5 | 7.8 | 0.00 | 0.00 | 0.00 | 68 | 1004.4 |
| 20260506060529 | 63 | 175 | 2.6 | 6.1 | 0.00 | 0.00 | 0.00 | 68 | 1004.4 |
| 20260506051048 | 63 | 162 | 2.6 | 7.0 | 0.00 | 0.00 | 0.00 | 68 | 1004.5 |
| 20260506050600 | 62 | 243 | 0.9 | 2.6 | 0.00 | 0.00 | 0.00 | 69 | 1004.4 |
| 20260506045032 | 60 | 213 | 1.7 | 5.2 | 0.00 | 0.00 | 0.00 | 71 | 1004.6 |
| 20260506044544 | 60 | 181 | 0.9 | 4.3 | 0.00 | 0.00 | 0.00 | 72 | 1004.6 |
| 20260506044024 | 59 | 216 | 1.7 | 5.2 | 0.00 | 0.00 | 0.00 | 72 | 1004.6 |
| 20260506043536 | 59 | 164 | 0.9 | 2.6 | 0.00 | 0.00 | 0.00 | 73 | 1004.7 |
| 20260506043050 | 58 | 262 | 1.7 | 4.3 | 0.00 | 0.00 | 0.00 | 74 | 1004.7 |
| 20260506042528 | 57 | 190 | 1.7 | 4.3 | 0.00 | 0.00 | 0.00 | 76 | 1004.9 |
| 20260506042041 | 55 | 200 | 1.7 | 5.2 | 0.00 | 0.00 | 0.00 | 78 | 1004.7 |
| 20260506041520 | 54 | 353 | 0.9 | 0.9 | 0.00 | 0.00 | 0.00 | 81 | 1004.6 |
| 20260506041033 | 53 | 348 | 0.0 | 1.7 | 0.00 | 0.00 | 0.00 | 83 | 1004.7 |
| 20260506040544 | 52 | 10 | 0.9 | 1.7 | 0.00 | 0.00 | 0.00 | 85 | 1004.6 |
| 20260506040025 | 50 | 336 | 0.0 | 0.9 | 0.00 | 0.00 | 0.00 | 88 | 1004.6 |
| 20260506035536 | 49 | 349 | 0.0 | 0.9 | 0.00 | 0.00 | 0.00 | 91 | 1004.5 |
| 20260506035048 | 48 | 0.0 | 0.0 | 0.00 | 0.00 | 0.00 | 92 | 1004.6 | |
| 20260506034528 | 48 | 0.0 | 0.0 | 0.00 | 0.00 | 0.00 | 92 | 1004.6 | |
| 20260506034040 | 48 | 0.0 | 0.0 | 0.00 | 0.00 | 0.00 | 92 | 1004.6 | |
| 20260506033520 | 48 | 0.0 | 0.0 | 0.00 | 0.00 | 0.00 | 93 | 1004.6 | |
| 20260506033032 | 48 | 0.0 | 0.0 | 0.00 | 0.00 | 0.00 | 93 | 1004.6 | |
| 20260506032545 | 48 | 0.0 | 0.0 | 0.00 | 0.00 | 0.00 | 93 | 1004.8 | |
| 20260506032024 | 48 | 0.0 | 0.0 | 0.00 | 0.00 | 0.00 | 93 | 1004.7 | |
| 20260506031537 | 48 | 0.0 | 0.0 | 0.00 | 0.00 | 0.00 | 93 | 1004.7 | |
| 20260506031048 | 48 | 0.0 | 0.0 | 0.00 | 0.00 | 0.00 | 93 | 1004.8 | |
| 20260506030529 | 48 | 0.0 | 0.0 | 0.00 | 0.00 | 0.00 | 93 | 1004.7 | |
| 20260506030040 | 48 | 0.0 | 0.0 | 0.00 | 0.00 | 0.00 | 93 | 1004.8 | |
| 20260506025521 | 48 | 0.0 | 0.0 | 0.00 | 0.00 | 0.00 | 93 | 1004.9 | |
| 20260506025032 | 48 | 0.0 | 0.0 | 0.00 | 0.00 | 0.00 | 93 | 1004.8 | |
| 20260506024544 | 48 | 325 | 0.0 | 0.9 | 0.00 | 0.00 | 0.00 | 93 | 1004.9 |
| 20260506024024 | 48 | 0.0 | 0.0 | 0.00 | 0.00 | 0.00 | 93 | 1004.7 | |
| 20260506023536 | 49 | 0.0 | 0.0 | 0.00 | 0.00 | 0.00 | 93 | 1004.8 | |
| 20260506023048 | 49 | 331 | 0.0 | 0.9 | 0.00 | 0.00 | 0.00 | 93 | 1004.8 |
| 20260506022528 | 49 | 0.0 | 0.0 | 0.00 | 0.00 | 0.00 | 93 | 1004.8 | |
| 20260506022024 | 49 | 0.0 | 0.0 | 0.00 | 0.00 | 0.00 | 93 | 1004.8 | |
| 20260506021536 | 49 | 0.0 | 0.0 | 0.00 | 0.00 | 0.00 | 94 | 1004.8 | |
| 20260506021049 | 49 | 0.0 | 0.0 | 0.00 | 0.00 | 0.00 | 94 | 1005.0 | |
| 20260506020544 | 49 | 0.0 | 0.0 | 0.00 | 0.00 | 0.00 | 94 | 1005.0 | |
| 20260506020024 | 49 | 0.0 | 0.0 | 0.00 | 0.00 | 0.00 | 94 | 1004.9 | |
| 20260506015536 | 49 | 0.0 | 0.0 | 0.00 | 0.00 | 0.00 | 94 | 1005.1 | |
| 20260506015048 | 49 | 0.0 | 0.0 | 0.00 | 0.00 | 0.00 | 94 | 1005.0 | |
| 20260506014528 | 50 | 0.0 | 0.0 | 0.00 | 0.00 | 0.00 | 94 | 1005.0 | |
| 20260506014040 | 50 | 0.0 | 0.0 | 0.00 | 0.00 | 0.00 | 94 | 1005.0 | |
| 20260506013520 | 50 | 0.0 | 0.0 | 0.00 | 0.00 | 0.00 | 94 | 1005.0 | |
| 20260506013032 | 50 | 0.0 | 0.0 | 0.00 | 0.00 | 0.00 | 94 | 1005.0 | |
| 20260506012549 | 50 | 0.0 | 0.0 | 0.00 | 0.00 | 0.00 | 94 | 1005.0 | |
| 20260506012024 | 51 | 0.0 | 0.0 | 0.00 | 0.00 | 0.00 | 94 | 1005.0 | |
| 20260506011537 | 51 | 0.0 | 0.0 | 0.00 | 0.00 | 0.00 | 94 | 1005.0 | |
| 20260506011048 | 51 | 0.0 | 0.0 | 0.00 | 0.00 | 0.00 | 94 | 1004.9 | |
| 20260506010529 | 51 | 0.0 | 0.0 | 0.00 | 0.00 | 0.00 | 94 | 1005.1 | |
| 20260506010040 | 51 | 0.0 | 0.0 | 0.00 | 0.00 | 0.00 | 94 | 1005.1 | |
| 20260506005521 | 51 | 0.0 | 0.0 | 0.00 | 0.00 | 0.00 | 94 | 1005.1 | |
| 20260506005032 | 51 | 0.0 | 0.0 | 0.00 | 0.00 | 0.00 | 94 | 1005.1 | |
| 20260506004544 | 52 | 0.0 | 0.0 | 0.00 | 0.00 | 0.00 | 94 | 1005.1 | |
| 20260506004024 | 52 | 0.0 | 0.0 | 0.00 | 0.00 | 0.00 | 94 | 1005.2 | |
| 20260506003536 | 52 | 337 | 0.0 | 0.9 | 0.00 | 0.00 | 0.00 | 93 | 1005.2 |
| 20260506003048 | 52 | 0.0 | 0.0 | 0.00 | 0.00 | 0.00 | 93 | 1005.3 | |
| 20260506002528 | 52 | 0.0 | 0.0 | 0.00 | 0.00 | 0.00 | 93 | 1005.2 | |
| 20260506002041 | 52 | 0.0 | 0.0 | 0.00 | 0.00 | 0.00 | 93 | 1005.2 | |
| 20260506001520 | 53 | 0.0 | 0.0 | 0.00 | 0.00 | 0.00 | 93 | 1005.2 | |
| 20260506001033 | 53 | 0.0 | 0.0 | 0.00 | 0.00 | 0.00 | 92 | 1005.2 | |
| 20260506000544 | 53 | 0.0 | 0.0 | 0.00 | 0.00 | 0.00 | 92 | 1005.2 | |
| 20260506000025 | 53 | 0.0 | 0.0 | 0.00 | 0.00 | 0.00 | 92 | 1005.2 | |
| 20260505235536 | 53 | 0.0 | 0.0 | 0.00 | 0.00 | 0.00 | 92 | 1005.2 | |
| 20260505235048 | 53 | 0.0 | 0.0 | 0.00 | 0.00 | 0.00 | 92 | 1005.3 | |
| 20260505234528 | 54 | 322 | 0.0 | 0.9 | 0.00 | 0.00 | 0.00 | 91 | 1005.3 |
| 20260505234040 | 54 | 0.0 | 0.0 | 0.00 | 0.00 | 0.00 | 91 | 1005.4 | |
| 20260505233520 | 54 | 0.0 | 0.0 | 0.00 | 0.00 | 0.00 | 91 | 1005.2 | |
| 20260505233032 | 54 | 0.0 | 0.0 | 0.00 | 0.00 | 0.00 | 91 | 1005.4 | |
| 20260505232544 | 54 | 327 | 0.0 | 0.9 | 0.00 | 0.00 | 0.00 | 91 | 1005.3 |
| 20260505232024 | 54 | 322 | 0.0 | 0.9 | 0.00 | 0.00 | 0.00 | 91 | 1005.4 |
| 20260505231536 | 54 | 332 | 0.0 | 0.9 | 0.00 | 0.00 | 0.00 | 91 | 1005.6 |
| 20260505230528 | 55 | 28 | 0.9 | 1.7 | 0.00 | 0.00 | 0.00 | 90 | 1005.6 |
| 20260505230040 | 55 | 307 | 0.9 | 1.7 | 0.00 | 0.00 | 0.00 | 90 | 1005.5 |
| 20260505225521 | 56 | 332 | 0.0 | 0.9 | 0.00 | 0.00 | 0.00 | 90 | 1005.5 |
| 20260505225032 | 56 | 324 | 0.0 | 0.9 | 0.00 | 0.00 | 0.00 | 90 | 1005.6 |
| 20260505224544 | 56 | 319 | 0.0 | 0.9 | 0.00 | 0.00 | 0.00 | 89 | 1005.6 |
| 20260505224024 | 57 | 334 | 0.0 | 0.9 | 0.00 | 0.00 | 0.00 | 89 | 1005.6 |
| 20260505223536 | 57 | 0.0 | 0.0 | 0.00 | 0.00 | 0.00 | 89 | 1005.6 | |
| 20260505223016 | 57 | 0.0 | 0.0 | 0.00 | 0.00 | 0.00 | 88 | 1005.7 | |
| 20260505222528 | 57 | 330 | 0.0 | 0.9 | 0.00 | 0.00 | 0.00 | 88 | 1005.7 |
| 20260505222040 | 57 | 318 | 0.0 | 0.9 | 0.00 | 0.00 | 0.00 | 88 | 1005.6 |
| 20260505221520 | 57 | 336 | 0.0 | 0.9 | 0.00 | 0.00 | 0.00 | 88 | 1005.6 |
| 20260505221032 | 58 | 319 | 0.0 | 0.9 | 0.00 | 0.00 | 0.00 | 87 | 1005.7 |
| 20260505220604 | 58 | 316 | 0.0 | 0.9 | 0.00 | 0.00 | 0.00 | 87 | 1005.6 |
| 20260505220024 | 58 | 0.0 | 0.0 | 0.00 | 0.00 | 0.00 | 87 | 1005.5 | |
| 20260505215536 | 58 | 311 | 0.0 | 1.7 | 0.00 | 0.00 | 0.00 | 87 | 1005.6 |
| 20260505215016 | 58 | 333 | 0.0 | 0.9 | 0.00 | 0.00 | 0.00 | 87 | 1005.6 |
| 20260505214528 | 59 | 0.0 | 0.0 | 0.00 | 0.00 | 0.00 | 87 | 1005.7 | |
| 20260505214040 | 58 | 0.0 | 0.0 | 0.00 | 0.00 | 0.00 | 86 | 1005.6 | |
| 20260505213520 | 58 | 0.0 | 0.0 | 0.00 | 0.00 | 0.00 | 86 | 1005.6 | |
| 20260505213032 | 58 | 330 | 0.0 | 0.9 | 0.00 | 0.00 | 0.00 | 86 | 1005.5 |
| 20260505212544 | 58 | 311 | 0.9 | 0.9 | 0.00 | 0.00 | 0.00 | 85 | 1005.6 |
| 20260505212024 | 59 | 296 | 0.9 | 1.7 | 0.00 | 0.00 | 0.00 | 84 | 1005.7 |
| 20260505211532 | 59 | 348 | 0.0 | 1.7 | 0.00 | 0.00 | 0.00 | 84 | 1005.6 |
| 20260505211034 | 59 | 326 | 0.9 | 0.9 | 0.00 | 0.00 | 0.00 | 85 | 1005.6 |
| 20260505210544 | 59 | 315 | 0.9 | 0.9 | 0.00 | 0.00 | 0.00 | 84 | 1005.6 |
| 20260505210024 | 60 | 319 | 0.0 | 0.9 | 0.00 | 0.00 | 0.00 | 82 | 1005.6 |